Simultaneous Nadir Overpasses (SNOs) Predictions

Prediction of SNOs between LANDSAT-8 and METOP-B Satellite Orbit:

Table of predicted SNOs for the next 14.0 days since TLE Epoch: 8/7/2021
Index Date (LANDSAT-8) Time (LANDSAT-8) Lat,Lon (LANDSAT-8) SZA (LANDSAT-8 ) Date (METOP-B) Time (METOP-B) Lat,Lon (METOP-B) SZA (METOP-B ) Distance(km) Time Diff (sec)
1 08/07/2021 06:42:05 81.10, 119.27 66.74 08/07/2021 06:41:20 81.10, 119.10 66.70 3.00 45
2 08/07/2021 07:31:31 -81.12, -72.78 113.20 08/07/2021 07:31:59 -81.12, -72.97 113.21 3.31 28
3 08/10/2021 02:16:20 81.11,-174.19 67.57 08/10/2021 02:15:41 81.11,-174.16 67.56 0.43 39
4 08/10/2021 03:05:46 -81.13, -6.21 112.37 08/10/2021 03:06:20 -81.13, -6.22 112.36 0.27 34
5 08/12/2021 21:50:36 81.12,-107.68 68.43 08/12/2021 21:50:04 81.11,-107.82 68.40 2.55 32
6 08/12/2021 22:40:02 -81.14, 60.33 111.51 08/12/2021 22:40:42 -81.14, 60.51 111.47 3.08 40
7 08/15/2021 17:24:52 81.12, -41.20 69.32 08/15/2021 17:24:26 81.12, -41.12 69.32 1.37 26
8 08/15/2021 18:14:18 -81.14, 126.84 110.62 08/15/2021 18:15:05 -81.14, 126.85 110.60 0.43 47
9 08/18/2021 12:59:07 81.12, 25.25 70.23 08/18/2021 12:58:48 81.12, 25.19 70.21 1.16 19



Historial Predications of SNOs between LANDSAT-8 and METOP-B
